| time (UTC) | temp F | wind direction | speed knots | gust knots | rain 1hr in | rain 24hr in | rain mn in | humidity % | barometer mb |
| 20260506221512 | 62 | 70 | 7.8 | 13.0 | 0.00 | 0.00 | 0.00 | 80 | 1018.2 |
| 20260506220024 | 61 | 108 | 8.7 | 13.9 | 0.00 | 0.00 | 0.00 | 80 | 1018.3 |
| 20260506214609 | 61 | 64 | 8.7 | 13.9 | 0.00 | 0.00 | 0.00 | 81 | 1018.6 |
| 20260506213008 | 62 | 102 | 8.7 | 14.8 | 0.00 | 0.00 | 0.00 | 81 | 1018.7 |
| 20260506211516 | 62 | 109 | 7.0 | 13.0 | 0.00 | 0.00 | 0.00 | 80 | 1018.7 |
| 20260506210008 | 62 | 66 | 7.8 | 13.9 | 0.00 | 0.00 | 0.00 | 81 | 1018.8 |
| 20260506204506 | 62 | 83 | 7.8 | 13.9 | 0.00 | 0.00 | 0.00 | 81 | 1018.9 |
| 20260506203006 | 62 | 117 | 7.8 | 13.9 | 0.00 | 0.00 | 0.00 | 79 | 1018.9 |
| 20260506201505 | 62 | 103 | 7.8 | 13.9 | 0.00 | 0.00 | 0.00 | 80 | 1019.0 |
| 20260506200005 | 62 | 68 | 7.8 | 14.8 | 0.00 | 0.00 | 0.00 | 80 | 1019.0 |
| 20260506194504 | 63 | 116 | 7.8 | 15.6 | 0.00 | 0.00 | 0.00 | 79 | 1018.9 |
| 20260506193003 | 62 | 100 | 8.7 | 15.6 | 0.00 | 0.00 | 0.00 | 79 | 1019.1 |
| 20260506191502 | 62 | 108 | 7.0 | 14.8 | 0.00 | 0.00 | 0.00 | 79 | 1019.1 |
| 20260506190002 | 62 | 119 | 6.1 | 13.9 | 0.00 | 0.00 | 0.00 | 80 | 1019.1 |
| 20260506184501 | 62 | 121 | 8.7 | 14.8 | 0.00 | 0.00 | 0.00 | 78 | 1019.1 |
| 20260506183002 | 62 | 108 | 7.8 | 12.2 | 0.00 | 0.00 | 0.00 | 79 | 1019.2 |
| 20260506181626 | 62 | 67 | 6.1 | 13.9 | 0.00 | 0.00 | 0.00 | 79 | 1019.3 |
| 20260506180111 | 62 | 48 | 7.0 | 11.3 | 0.00 | 0.00 | 0.00 | 78 | 1019.3 |
| 20260506174601 | 62 | 101 | 6.1 | 13.9 | 0.00 | 0.00 | 0.00 | 76 | 1019.2 |
| 20260506173129 | 62 | 67 | 6.1 | 11.3 | 0.00 | 0.00 | 0.00 | 76 | 1019.3 |
| 20260506171603 | 62 | 82 | 7.8 | 13.9 | 0.00 | 0.00 | 0.00 | 74 | 1019.2 |
| 20260506170104 | 62 | 88 | 7.0 | 11.3 | 0.00 | 0.00 | 0.00 | 75 | 1019.1 |
| 20260506164556 | 62 | 76 | 4.3 | 9.6 | 0.00 | 0.00 | 0.00 | 77 | 1019.0 |
| 20260506163055 | 62 | 46 | 2.6 | 7.8 | 0.00 | 0.00 | 0.00 | 77 | 1018.9 |
| 20260506161551 | 61 | 81 | 3.5 | 6.1 | 0.00 | 0.00 | 0.00 | 79 | 1019.0 |
| 20260506160059 | 60 | 82 | 3.5 | 6.1 | 0.00 | 0.00 | 0.00 | 79 | 1019.1 |
| 20260506154548 | 59 | 80 | 3.5 | 6.1 | 0.00 | 0.00 | 0.00 | 81 | 1019.0 |
| 20260506153043 | 58 | 97 | 1.7 | 5.2 | 0.00 | 0.00 | 0.00 | 85 | 1019.1 |
| 20260506151539 | 56 | 90 | 0.0 | 0.0 | 0.00 | 0.00 | 0.00 | 89 | 1019.3 |
| 20260506150035 | 55 | 90 | 0.0 | 0.9 | 0.00 | 0.00 | 0.00 | 92 | 1019.4 |
| 20260506144533 | 53 | 138 | 0.0 | 0.0 | 0.00 | 0.00 | 0.00 | 94 | 1019.3 |
| 20260506143035 | 52 | 209 | 0.0 | 0.0 | 0.00 | 0.00 | 0.00 | 95 | 1019.2 |
| 20260506141530 | 51 | 209 | 0.0 | 0.0 | 0.00 | 0.00 | 0.00 | 97 | 1018.9 |
| 20260506140033 | 49 | 209 | 0.0 | 0.0 | 0.00 | 0.00 | 0.00 | 96 | 1018.8 |
| 20260506134527 | 48 | 209 | 0.0 | 0.0 | 0.00 | 0.00 | 0.00 | 96 | 1018.7 |
| 20260506133027 | 47 | 209 | 0.9 | 2.6 | 0.00 | 0.00 | 0.00 | 96 | 1018.7 |
| 20260506131541 | 47 | 209 | 1.7 | 2.6 | 0.00 | 0.00 | 0.00 | 95 | 1018.5 |
| 20260506130035 | 47 | 75 | 0.0 | 0.0 | 0.00 | 0.00 | 0.00 | 95 | 1018.5 |
| 20260506124523 | 47 | 75 | 0.0 | 1.7 | 0.00 | 0.00 | 0.00 | 95 | 1018.4 |
| 20260506123022 | 47 | 75 | 0.9 | 2.6 | 0.00 | 0.00 | 0.00 | 95 | 1018.5 |
| 20260506121523 | 47 | 304 | 0.0 | 0.9 | 0.00 | 0.00 | 0.00 | 95 | 1018.3 |
| 20260506120021 | 47 | 304 | 0.9 | 2.6 | 0.00 | 0.00 | 0.00 | 95 | 1017.9 |
| 20260506114521 | 47 | 304 | 0.9 | 2.6 | 0.00 | 0.00 | 0.00 | 95 | 1018.0 |
| 20260506113015 | 47 | 323 | 0.0 | 0.0 | 0.00 | 0.00 | 0.00 | 95 | 1018.2 |
| 20260506111513 | 48 | 345 | 0.0 | 0.0 | 0.00 | 0.00 | 0.00 | 95 | 1018.2 |
| 20260506110012 | 48 | 345 | 0.0 | 0.0 | 0.00 | 0.00 | 0.00 | 94 | 1018.3 |
| 20260506104510 | 48 | 345 | 0.0 | 0.0 | 0.00 | 0.00 | 0.00 | 94 | 1018.3 |
| 20260506103011 | 48 | 345 | 0.0 | 0.0 | 0.00 | 0.00 | 0.00 | 94 | 1018.3 |
| 20260506101508 | 49 | 345 | 0.0 | 0.0 | 0.00 | 0.00 | 0.00 | 94 | 1018.2 |
| 20260506100007 | 49 | 345 | 0.0 | 0.0 | 0.00 | 0.00 | 0.00 | 94 | 1018.2 |
| 20260506094506 | 49 | 345 | 0.0 | 0.0 | 0.00 | 0.00 | 0.00 | 93 | 1018.1 |
| 20260506093006 | 50 | 345 | 0.0 | 0.0 | 0.00 | 0.00 | 0.00 | 93 | 1018.1 |
| 20260506091501 | 50 | 345 | 0.0 | 0.9 | 0.00 | 0.00 | 0.00 | 94 | 1018.1 |
| 20260506090059 | 51 | 345 | 0.9 | 2.6 | 0.00 | 0.00 | 0.00 | 93 | 1018.2 |
| 20260506084557 | 51 | 345 | 0.0 | 1.7 | 0.00 | 0.00 | 0.00 | 93 | 1018.4 |
| 20260506083103 | 51 | 38 | 0.0 | 0.0 | 0.00 | 0.00 | 0.00 | 92 | 1018.2 |
| 20260506081556 | 52 | 38 | 0.0 | 0.0 | 0.00 | 0.00 | 0.00 | 92 | 1018.4 |
| 20260506073048 | 54 | 38 | 0.0 | 1.7 | 0.00 | 0.00 | 0.00 | 92 | 1018.3 |
| 20260506071547 | 54 | 47 | 0.9 | 4.3 | 0.00 | 0.00 | 0.00 | 92 | 1018.3 |
| 20260506061539 | 55 | 42 | 3.5 | 9.6 | 0.00 | 0.00 | 0.00 | 91 | 1017.7 |
| 20260506044532 | 55 | 87 | 1.7 | 4.3 | 0.00 | 0.00 | 0.00 | 90 | 1017.3 |
| 20260506043030 | 55 | 66 | 1.7 | 5.2 | 0.00 | 0.00 | 0.00 | 90 | 1017.1 |
| 20260506041528 | 55 | 65 | 1.7 | 5.2 | 0.00 | 0.00 | 0.00 | 90 | 1017.0 |
| 20260506040027 | 55 | 63 | 2.6 | 7.0 | 0.00 | 0.00 | 0.00 | 90 | 1016.8 |
| 20260506034526 | 56 | 63 | 1.7 | 6.1 | 0.00 | 0.00 | 0.00 | 89 | 1016.7 |
| 20260506033025 | 56 | 59 | 2.6 | 6.1 | 0.00 | 0.00 | 0.00 | 88 | 1016.6 |
| 20260506031525 | 56 | 66 | 2.6 | 8.7 | 0.00 | 0.00 | 0.00 | 87 | 1016.3 |
| 20260506030030 | 56 | 89 | 2.6 | 7.8 | 0.00 | 0.00 | 0.00 | 86 | 1016.1 |
| 20260506024539 | 57 | 106 | 5.2 | 9.6 | 0.00 | 0.00 | 0.00 | 85 | 1016.0 |
| 20260506023022 | 58 | 85 | 6.1 | 10.4 | 0.00 | 0.00 | 0.00 | 84 | 1015.8 |
| 20260506021522 | 58 | 87 | 4.3 | 10.4 | 0.00 | 0.00 | 0.00 | 84 | 1015.7 |
| 20260506020021 | 59 | 93 | 4.3 | 13.9 | 0.00 | 0.00 | 0.00 | 83 | 1015.7 |
| 20260506014523 | 59 | 110 | 8.7 | 11.3 | 0.00 | 0.00 | 0.00 | 82 | 1015.8 |
| 20260506013020 | 59 | 104 | 7.0 | 11.3 | 0.00 | 0.00 | 0.00 | 81 | 1015.8 |
| 20260506011520 | 59 | 81 | 6.1 | 11.3 | 0.00 | 0.00 | 0.00 | 79 | 1015.7 |
| 20260506010020 | 59 | 91 | 6.1 | 12.2 | 0.00 | 0.00 | 0.00 | 79 | 1015.7 |
| 20260506004518 | 59 | 99 | 6.1 | 13.0 | 0.00 | 0.00 | 0.00 | 78 | 1015.7 |
| 20260506003019 | 60 | 121 | 7.0 | 13.0 | 0.00 | 0.00 | 0.00 | 77 | 1015.7 |
| 20260506001519 | 60 | 84 | 7.0 | 13.0 | 0.00 | 0.00 | 0.00 | 76 | 1015.6 |
| 20260506000017 | 61 | 89 | 7.0 | 9.6 | 0.00 | 0.00 | 0.00 | 77 | 1015.6 |
| 20260505234526 | 61 | 96 | 8.7 | 13.9 | 0.00 | 0.00 | 0.00 | 76 | 1015.6 |
| 20260505233020 | 62 | 87 | 6.1 | 13.0 | 0.00 | 0.00 | 0.00 | 77 | 1015.7 |
| 20260505231516 | 61 | 109 | 7.8 | 14.8 | 0.00 | 0.00 | 0.00 | 77 | 1015.6 |
| 20260505230032 | 61 | 92 | 7.0 | 15.6 | 0.00 | 0.00 | 0.00 | 78 | 1015.7 |
| 20260505224515 | 62 | 101 | 7.0 | 15.6 | 0.00 | 0.00 | 0.00 | 75 | 1015.8 |
| 20260505223014 | 61 | 108 | 5.2 | 15.6 | 0.00 | 0.00 | 0.00 | 77 | 1015.9 |